Regional Weather Roundup
Issued by NWS

Home | Current Version | Previous Version | Graphics & Text | Print | Product List | Glossary On
Versions: 1 2 3 4 5 6 7 8 9 10 11 12 13 14 15 16 17 18 19 20 21 22 23 24 25 26 27 28 29 30 31 32 33 34 35 36 37 38 39 40 41 42 43 44 45 46 47 48 49 50
000
ASUS43 KTOP 250508
RWRKS

WEATHER ROUNDUP FOR KANSAS
NATIONAL WEATHER SERVICE GOODLAND KS
1200 AM CDT WED APR 25 2018

NOTE:  "FAIR" INDICATES FEW OR NO CLOUDS BELOW 12,000 FEET WITH NO
SIGNIFICANT WEATHER AND/OR OBSTRUCTIONS TO VISIBILITY.

KSZ001>006-013>018-027>032-041>047-250600-
NORTHWEST KANSAS

CITY           SKY/WX    TMP DP  RH WIND       PRES   REMARKS
GOODLAND       CLOUDY    37  34  89 N14       30.37F WCI  28
HAYS           LGT RAIN  42  39  89 N15       30.31F
HILL CITY      CLOUDY    42  37  82 N18       30.34F
RUSSELL        LGT RAIN  43  42  97 N20       30.28F
$$

KSZ061>065-074>080-084>089-250600-
SOUTHWEST KANSAS

CITY           SKY/WX    TMP DP  RH WIND       PRES   REMARKS
DODGE CITY     RAIN      40  37  89 N25G33    30.31R FOG     WCI  29
ELKHART        CLOUDY    40  37  91 N21G28    30.38S WCI  30
GARDEN CITY    LGT RAIN  37  35  92 N20       30.36R WCI  27
GREAT BEND     RAIN      43  41  93 N16       30.29S
LIBERAL        LGT RAIN  39  37  92 N17       30.37R WCI  30
PRATT          LGT RAIN  43  41  91 N25       30.27R
$$

KSZ066>073-081>083-090>101-250600-
SOUTHEAST KANSAS

CITY           SKY/WX    TMP DP  RH WIND       PRES   REMARKS
CHANUTE        CLOUDY    57  47  69 NW9       30.13S
COFFEYVILLE    CLOUDY    60  47  61 N10       30.11F
HUTCHINSON     LGT RAIN  47  43  86 NW20G28   30.24R
MEDICINE LODGE   N/A     48  41  76 N21G32    30.24R
NEWTON         CLOUDY    48  44  86 N22       30.19F
PARSONS        CLOUDY    57  47  69 N9        30.13S
WICHITA INTL   CLOUDY    50  45  83 N16       30.20S
WICHITA JABRA  CLOUDY    49  45  86 NW20      30.19F
WINFIELD       CLOUDY    53  48  83 N17       30.18R
$$

KSZ007>012-019>026-033>040-048>060-102>105-250600-
NORTHEAST KANSAS

CITY           SKY/WX    TMP DP  RH WIND       PRES   REMARKS
CONCORDIA      CLOUDY    47  45  93 NW12      30.24S
EMPORIA        CLOUDY    53  47  79 NW9       30.16F
LAWRENCE       CLOUDY    58  47  66 NW9       30.14R
MANHATTAN      CLOUDY    51  46  83 NW8       30.21R
MARYSVILLE     LGT RAIN  50  48  93 NW10      30.20S
OLATHE IND     CLOUDY    59  46  62 N13       30.13F
OLATHE EXE     CLOUDY    59  45  59 N13       30.11F
SALINA         RAIN      48  47  96 NW16      30.25R FOG
TOPEKA BILLARD CLOUDY    56  49  77 W6        30.15F
TOPEKA FORBES  CLOUDY    56  49  77 NW9       30.14F
$$




USA.gov is the U.S. government's official web portal to all federal, state and local government web resources and services.